sat.trackr.live / text

‹ back to catalog

STARLINK-11200 [DTC]

NORAD 60310 · 2024-133K

PAYLOAD ACTIVE UNKNOWN

§ Identity

Operator
Country
US
Launch date
2024-07-28
Launch site
AFWTR
Launch vehicle
Mass (kg)
RCS (m²)

Purposes: comms

External: N2YO · Heavens-Above · Gunter

§ Orbital elements

Epoch: 2026-09-20T05:38:16.389888Z

Period
91.74 min
Inclination
53.1591°
Eccentricity
0.0000899
Mean motion
15.69699367 rev/d
Perigee alt
359.2 km
Apogee alt
360.4 km
Semi-major
6,737.9 km
B*
-2.5444e-7
RAAN
266.8868°
Arg perigee
80.7177°
Mean anomaly
279.3942°
Rev number
12,429

§ Raw data

STARLINK-11200 [DTC]1 60310U 24133K   26263.23491192 -.00000619  00000+0 -25444-6 0  99952 60310  53.1591 266.8868 0000899  80.7177 279.3942 15.69699367124291

JSON: /api/v1/satellites/60310 · /tle

For live sub-satellite position, see the globe view (requires WebGL).

§ Visibility from observer

Set your observer location to see the next 7 days of passes ≥ 10°. The values pass through the URL so the page stays shareable.

No JS? Fill the form by hand. The geolocation button needs JavaScript.